This is the latest recevied weather packets stored in our database for station/object KD9CCP. If no packets are shown the sender has not sent any weather packets the latest 10 day(s).
| Time | Temp. | Humidity | Pressure | Rain* | Wind** | Luminosity | Snow |
|---|---|---|---|---|---|---|---|
| 1777836535 | 17.78° C | 45% | 1004.1 hPa | 0 mm | - | 55 W/m² | - |
| 1777836231 | 18.33° C | 44% | 1004.3 hPa | 0 mm | - | 78 W/m² | - |
| 1777835927 | 17.78° C | 47% | 1004.2 hPa | 0 mm | - | 92 W/m² | - |
| 1777835625 | 17.22° C | 47% | 1004.5 hPa | 0 mm | - | 69 W/m² | - |
| 1777835321 | 17.22° C | 48% | 1004.5 hPa | 0 mm | - | 54 W/m² | - |
| 1777835018 | 17.78° C | 47% | 1004.3 hPa | 0 mm | - | 64 W/m² | - |
| 1777834715 | 17.22° C | 49% | 1004.7 hPa | 0 mm | - | 95 W/m² | - |
| 1777834411 | 17.22° C | 50% | 1004.6 hPa | 0 mm | - | 93 W/m² | - |
| 1777834106 | 17.22° C | 48% | 1004.6 hPa | 0 mm | - | 69 W/m² | - |
| 1777833802 | 17.22° C | 48% | 1004.7 hPa | 0 mm | - | 496 W/m² | - |
| 1777833498 | 17.22° C | 49% | 1004.7 hPa | 0 mm | - | 62 W/m² | - |
| 1777833195 | 17.78° C | 48% | 1004.7 hPa | 0 mm | - | 69 W/m² | - |
| 1777832893 | 18.89° C | 48% | 1004.6 hPa | 0 mm | - | 80 W/m² | - |
| 1777832592 | 18.33° C | 49% | 1004.7 hPa | 0 mm | - | 303 W/m² | - |
| 1777832289 | 17.22° C | 49% | 1005.1 hPa | 0 mm | - | 611 W/m² | - |
| 1777831986 | 16.67° C | 50% | 1004.9 hPa | 0 mm | - | 46 W/m² | - |
| 1777831682 | 17.22° C | 52% | 1004.7 hPa | 0 mm | - | 126 W/m² | - |
| 1777831380 | 16.67° C | 51% | 1004.8 hPa | 0 mm | - | 68 W/m² | - |
| 1777831076 | 16.67° C | 53% | 1004.8 hPa | 0 mm | - | 81 W/m² | - |
| 1777830775 | 16.67° C | 50% | 1005 hPa | 0 mm | - | 563 W/m² | - |
| 1777830475 | 16.11° C | 53% | 1005.1 hPa | 0 mm | - | 632 W/m² | - |
| 1777830173 | 16.67° C | 55% | 1005.2 hPa | 0 mm | - | 205 W/m² | - |
| 1777829868 | 16.67° C | 51% | 1005.1 hPa | 0 mm | - | 732 W/m² | - |
| 1777829564 | 16.67° C | 53% | 1005.1 hPa | 0 mm | - | 732 W/m² | - |
| 1777829261 | 16.67° C | 51% | 1005.2 hPa | 0 mm | - | 626 W/m² | - |
* Rain latest hour (hover to see other rain measurements)
** Current wind speed in m/s (hover to see current wind gust speed)